Regional Weather Roundup
Issued by NWS

Home | Current Version | Previous Version | Text Only | Print | Product List | Glossary On
Versions: 1 2 3 4 5 6 7 8 9 10 11 12 13 14 15 16 17 18 19 20 21 22 23 24 25 26 27 28 29 30 31 32 33 34 35 36 37 38 39 40 41 42 43 44 45 46 47 48 49 50
000
ASUS42 KFFC 230910
RWRGA
WEATHER ROUNDUP FOR GEORGIA
NATIONAL WEATHER SERVICE PEACHTREE CITY GA
400 AM EST TUE JAN 23 2018

NOTE: "FAIR" INDICATES FEW OR NO CLOUDS BELOW 12,000 FEET WITH NO
SIGNIFICANT WEATHER AND/OR OBSTRUCTIONS TO VISIBILITY.

* = USE WITH CAUTION. THE STATIONS MARKED WITH AN ASTERISK MAY NOT
REPORT WEATHER SUCH AS PRECIPITATION, FOG, OR THUNDER AND ARE NOT
QUALITY CONTROLLED BY NWS.

THE REMARK "TC" DENOTES TEMPERATURE READING IN DEGREES CELSIUS.

GAZ001>058-231000-
NORTH GEORGIA

CITY           SKY/WX    TMP DP  RH WIND       PRES   REMARKS
ATLANTA        MOCLDY    57  48  72 W20G28    29.88R
ATHENS         CLOUDY    61  60  97 SW7       29.83F
CHAMBLEE       CLOUDY    56  47  71 W16G24    29.87S
PEACHTREE CITY CLOUDY    59  52  77 W10       29.91R
ROME           FAIR      51  31  46 W9G24     29.90R
WEST ATLANTA   CLOUDY    57  49  74 W6G17     29.89R
GAINESVILLE    CLOUDY    57  52  83 W13       29.86R
CARTERSVILLE   FAIR      48  42  80 CALM      29.91R


CITY           SKY/WX    TMP DP  RH WIND       PRES   REMARKS
DALTON*        FAIR      52  32  46 SW3       29.90R
LAWRENCEVILLE* LGT RAIN  58  50  75 W17G26      N/A
MARIETTA       FAIR      55  48  78 W15       29.88R
KENNESAW*      MOCLDY    54  40  59 W15G26    29.90R
CANTON*        FAIR      54  43  66 W14G20    29.90R
BLAIRSVILLE*   CLOUDY    54  45  73 W12G20    29.85S
$$

GAZ059>098-102>109-231000-
CENTRAL GEORGIA

CITY           SKY/WX    TMP DP  RH WIND       PRES   REMARKS
AUGUSTA-BUSH   LGT RAIN  65  63  93 S12       29.86F
AUGUSTA-DANIEL LGT RAIN  65  63  93 S14       29.87S
COLUMBUS       MOCLDY    61  53  75 NW16G25   29.93R
MACON          MOCLDY    65  62  90 SW10      29.88F
ROBINS AFB     MOCLDY    64  63  94 S10       29.88S


CITY           SKY/WX    TMP DP  RH WIND       PRES   REMARKS
LAGRANGE*      FAIR      53  42  66 W8        29.94R
SYLVANIA*      LGT RAIN  65  65 100 SW9       29.92S
MILLEDGEVILLE* CLOUDY    63  63 100 SW3       29.87F
$$

GAZ099>101-110>166-231000-
SOUTH GEORGIA

CITY           SKY/WX    TMP DP  RH WIND       PRES   REMARKS
SAVANNAH       CLOUDY    65  64  97 S10       29.94S
VALDOSTA       CLOUDY    65  63  93 S10G17    29.96F
ALMA           CLOUDY    64  62  93 SW6       29.95S
ST SIMONS      CLOUDY    66  64  93 SW7       29.96F
FT STEWART     CLOUDY    67  61  81 SW7       29.92F
ALBANY         CLOUDY    65  64  97 SW9       29.96R
HUNTER AFB     CLOUDY    65  61  88 S8        29.91F
MOODY AFB      CLOUDY    65  65 100 SW13      29.95F
BRUNSWICK      CLOUDY    68  61  77 S10       29.96F


CITY           SKY/WX    TMP DP  RH WIND       PRES   REMARKS
BAINBRIDGE*    CLOUDY    64  64 100 SW3       29.96R
MOULTRIE*      CLOUDY    64  63  94 S9        29.96F
VIDALIA*       CLOUDY    64  64 100 SW12G17   29.93S
WAYCROSS*      CLOUDY    66  63  90 SW9       29.96S
DOUGLAS*       CLOUDY    64  63  94 SW7       29.97S
$$




USA.gov is the U.S. government's official web portal to all federal, state and local government web resources and services.